OpenBCM V1.08-5-g2f4a (Linux)

Packet Radio Mailbox

IZ3LSV

[San Dona' di P. JN]

 Login: GUEST





  
LU1HVK > KEP      10.01.20 17:52l 241 Lines 12023 Bytes #999 (0) @ WW
BID : 38679_LU1HVK
Read: GUEST
Subj: TLE 29 10
Path: IZ3LSV<IW0QNL<JH4XSY<N3HYM<XE1FH<LU1HVK
Sent: 200110/1525Z 38679@LU1HVK.2594.CBA.ARG.SA LinBPQ6.0.19

                         _    _   _ _ _   ___     ___  __
                        | |  | | | / | | | \ \   / / |/ /
                        | |  | | | | | |_| |\ \ / /| ' /
                        | |__| |_| | |  _  | \ V / | . \
                        |_____\___/|_|_| |_|  \_/  |_|\_\

     BBS/NODO - CORDOBA (LEONES-FF87UH) - LU1HVK-4 NODO - LU1HVK-3 APRS

+----------------------------------------------------------------------------+
OSCAR 7
1  7530U 74089B   19300.90106219 -.00000040  00000-0  28310-4 0  9997
2  7530 101.7632 267.2972 0012476  93.2438 334.0502 12.53640567 56963
OSCAR 11 (UoSAT 2)
1 14781U 84021B   19301.12733551  .00000095  00000-0  17804-4 0  9995
2 14781  97.6037 319.5773 0007132 243.5615 116.4868 14.83115438918245
OSCAR 19 (LUSAT)
1 20442U 90005G   19300.87391690 -.00000009 +00000-0 +12827-4 0  9996
2 20442 098.6610 242.7209 0012684 119.9575 240.2869 14.32935976555104
EYESAT A
1 22825U 93061C   19300.96689856 -.00000011  00000-0  13970-4 0  9995
2 22825  98.9142 292.6670 0008102 343.9247  16.1676 14.30069519360711
ITAMSAT
1 22826U 93061D   19301.49755921 -.00000005  00000-0  15956-4 0  9991
2 22826  98.9082 293.1852 0008395 329.9503  30.1196 14.30403840360998
RADIO ROSTO
1 23439U 94085A   19301.22137253 -.00000055  00000-0 -35272-3 0  9990
2 23439  64.8154 263.4205 0145266  87.5265 274.2280 11.27568524 22886
JAS 2
1 24278U 96046B   19301.39174226 -.00000050  00000-0 -11738-4 0  9997
2 24278  98.5579  77.0581 0349355 258.5602  97.6115 13.53094301145618
TECHSAT 1B
1 25397U 98043D   19300.90400613 -.00000015  00000-0  12768-4 0  9991
2 25397  98.6999 239.5158 0001951  48.8408 311.2939 14.23672977106541
ISS (ZARYA)
1 25544U 98067A   19301.85993917  .00001478  00000-0  33649-4 0  9994
2 25544  51.6451  58.4650 0006407 198.4553 306.4863 15.50229471195993
PCSAT
1 26931U 01043C   19301.49833342 -.00000015  00000-0  26009-4 0  9997
2 26931  67.0532  23.5523 0007483 267.0734  92.9511 14.30556535943827
SAUDISAT 1C
1 27607U 02058C   19301.63854276  .00000056  00000-0  28697-4 0  9999
2 27607  64.5565   6.1826 0074045 230.8143 128.6368 14.75583428906500
CUTE-1
1 27844U 03031E   19301.49599090  .00000051  00000-0  42789-4 0  9991
2 27844  98.6852 307.7442 0010102  16.0303 344.1193 14.22201821847028
CUBESAT XI 4
1 27848U 03031J   19300.96277230  .00000046  00000-0  40703-4 0  9993
2 27848  98.6925 307.7454 0010229  28.9390 331.2353 14.21793851846790
MOZHAYETS 4
1 27939U 03042A   19301.77433019  .00000152  00000-0  35789-4 0  9991
2 27939  98.0597  75.1634 0013237  15.2721 344.8884 14.66812632859909
CUBESAT XI 5
1 28895U 05043F   19301.37801950  .00000136  00000-0  34982-4 0  9991
2 28895  97.9786  79.7454 0015584 297.9962  61.9664 14.63703944746744
CUTE-1.7+APD II
1 32785U 08021C   19301.45785896  .00000264  00000-0  34047-4 0  9996
2 32785  97.5571 295.0078 0012969 179.3912 180.7323 14.88364043623287
DELFI C3
1 32789U 08021G   19300.81647339  .00002047  00000-0  13976-3 0  9996
2 32789  97.4503 346.4410 0013006  42.8721 317.3518 15.07205333626714
SEEDS
1 32791U 08021J   19301.79073880  .00000277  00000-0  33361-4 0  9995
2 32791  97.5320 301.4137 0014001 152.0617 208.1356 14.90896379623795
YUBELEINY
1 32953U 08025A   19301.71857988  .00000020  00000-0  75656-4 0  9999
2 32953  82.5030  62.6461 0019353 199.0853 160.9508 12.43092088518711
PRISM (HITOMI)
1 33493U 09002B   19301.76652291  .00000604  00000-0  58237-4 0  9994
2 33493  98.1242 227.7374 0016484 103.3890 256.9169 14.96783103584905
KKS-1 (KISEKI)
1 33499U 09002H   19301.17051356  .00000141  00000-0  28730-4 0  9991
2 33499  98.3392 144.0188 0009833 141.8648 218.3258 14.75473235578612
SWISSCUBE
1 35932U 09051B   19300.89642683 +.00000129 +00000-0 +40170-4 0  9994
2 35932 098.5993 110.8155 0008585 119.7275 240.4777 14.56322352535834
BEESAT
1 35933U 09051C   19300.89156624 +.00000113 +00000-0 +36421-4 0  9997
2 35933 098.6009 112.6223 0006619 129.8305 230.3476 14.56406754535903
ITUPSAT 1
1 35935U 09051E   19301.43755191  .00000102  00000-0  34562-4 0  9996
2 35935  98.6119 113.4127 0008984 128.0626 232.1382 14.55561822535805
XIWANG-1 (HOPE-1)
1 36122U 09072B   19300.76772955 -.00000043  00000-0 -32962-5 0  9999
2 36122 100.0796 297.0138 0008070  48.6537 311.5263 13.16351645474121
TISAT 1
1 36799U 10035E   19301.40692552  .00000400  00000-0  46392-4 0  9992
2 36799  98.1722  98.0737 0012593  19.9799 340.1909 14.91187290504392
JUGNU
1 37839U 11058B   19300.28566681  .00000321  00000-0  29442-4 0  9991
2 37839  19.9613 262.8362 0018723 327.2995 176.5630 14.12662630415748
SRMSAT
1 37841U 11058D   19301.44289300  .00000297  00000-0  17858-4 0  9993
2 37841  19.9730 315.3193 0011730 203.0219 305.8225 14.10641676415313
M-CUBED/EXP-1 PRIME
1 37855U 11061F   19301.85046603  .00002906  00000-0  15121-3 0  9993
2 37855 101.7186 265.3114 0172885  44.9231 316.5822 15.05696513436663
HORYU 2
1 38340U 12025D   19300.77485653  .00000216  00000-0  39538-4 0  9997
2 38340  98.3155 343.2072 0012649  69.6129 290.6437 14.75765180400499
STRAND 1
1 39090U 13009E   19301.14226052  .00000056  00000-0  34877-4 0  9994
2 39090  98.4747 144.8227 0008051 257.5609 102.4675 14.35102336349243
SOMP
1 39134U 13015E   19301.18752955  .00002243  00000-0  10996-3 0  9995
2 39134  64.8635 314.3365 0037172 282.5435  77.1536 15.20434854360585
BEESAT 3
1 39135U 13015F   19301.21287862  .00001348  00000-0  75383-4 0  9997
2 39135  64.8680 334.4218 0038196 288.3802  71.3172 15.17683279360209
BEESAT 2
1 39136U 13015G   19300.50902947  .00001263  00000-0  72853-4 0  9992
2 39136  64.8690 340.8954 0029445 293.4992  66.3040 15.17097152360019
CUBEBUG 1
1 39153U 13018D   19301.81817611  .00000263  00000-0  41134-4 0  9999
2 39153  97.9816  39.2229 0018087 127.9720 232.3129 14.80614413351364
ZACUBE
1 39417U 13066B   19301.44137981  .00000271  00000-0  40398-4 0  9999
2 39417  97.5624 307.5381 0058006 323.2288  36.4952 14.81168172320545
TRITON 1
1 39427U 13066M   19300.88229975  .00000227  00000-0  43755-4 0  9993
2 39427  97.6933 270.2678 0115117 105.2527 256.1440 14.67895542317581
GOMX 1
1 39430U 13066Q   19301.75383870  .00000120  00000-0  30789-4 0  9994
2 39430  97.7613 249.7062 0150504 197.4795 162.1195 14.59300349315867
HUMSAT D
1 39433U 13066T   19301.10931635  .00000336  00000-0  37990-4 0  9994
2 39433  97.5392 343.1474 0029825 219.8070 140.0962 14.92282335322679
CUBEBUG 2
1 39440U 13066AA  19301.48220938  .00000295  00000-0  47868-4 0  9999
2 39440  97.6111 292.1951 0080690  17.8655 342.5363 14.75905554319410
FUNCUBE 1
1 39444U 13066AE  19301.03120577  .00000330  00000-0  46911-4 0  9990
2 39444  97.5593 309.2188 0057007 317.7848  41.8984 14.81997669319380
UWE-3
1 39446U 13066AG  19300.98983351  .00000270  00000-0  42394-4 0  9996
2 39446  97.5860 298.8785 0069819 352.8543   7.1667 14.78440236318663
SPROUT
1 39770U 14029E   19301.75514859  .00000779  00000-0  92081-4 0  9997
2 39770  97.8896  44.2382 0009330  19.2442 340.9142 14.87476321294466
UNISAT 6
1 40012U 14033C   19301.71004417  .00000228  00000-0  41112-4 0  9991
2 40012  97.7374 162.5059 0059184  32.9874 327.5005 14.74023916288135
DUCHIFAT 1
1 40021U 14033M   19300.84123596  .00000456  00000-0  52287-4 0  9992
2 40021  97.9262 225.8770 0012608 344.3357  15.7469 14.90717025291089
QB50P1
1 40025U 14033R   19301.34843078  .00000367  00000-0  45035-4 0  9990
2 40025  97.9050 220.8065 0012291 353.1009   7.0036 14.89007105290914
CHUBUSAT 1
1 40300U 14070C   19301.80479225  .00000970  00000-0  45052-4 0  9996
2 40300  97.3167  12.5750 0019300 314.9670 184.8373 15.22223449276110
NUDT-PHONESAT
1 40900U 15049B   19301.77234625  .00002738  00000-0  11849-3 0  9998
2 40900  97.4377 309.8403 0014360  81.8774   5.0156 15.23194538227760
ZDPS 2A
1 40901U 15049C   19301.72757160  .00001163  00000-0  60595-4 0  9992
2 40901  97.4622 305.6677 0014903 101.4337 345.7342 15.17896446227264
ZDPS 2B
1 40902U 15049D   19301.70106713  .00001312  00000-0  68119-4 0  9999
2 40902  97.4578 303.0324 0015066  99.5914 349.0104 15.17768761227233
XW-2A
1 40903U 15049E   19301.76993483  .00002905  00000-0  69404-4 0  9991
2 40903  97.3231 345.1981 0014298  33.5144  59.0622 15.42246293230601
KAITUO 1A
1 40904U 15049F   19301.72754847  .00000762  00000-0  43682-4 0  9996
2 40904  97.4716 301.5128 0016096 108.2091 338.0874 15.15477346226990
OBJECT G
1 40905U 15049G   19301.70420652  .00000316  00000-0  20774-4 0  9991
2 40905  97.4766 298.9050 0017106 104.1257 343.4511 15.14372718226850
XW-2C
1 40906U 15049H   19301.89494747  .00000573  00000-0  33379-4 0  9998
2 40906  97.4723 301.8232 0016410  99.2781 325.0063 15.15796878227029
XW-2D
1 40907U 15049J   19301.72782131  .00001048  00000-0  57902-4 0  9994
2 40907  97.4700 301.3392 0015788  97.7135 348.4606 15.15998624227014
LILACSAT 2
1 40908U 15049K   19301.72553387  .00000653  00000-0  39584-4 0  9991
2 40908  97.4842 300.0119 0017442 104.7762 341.2611 15.13878003226785
XW-2F
1 40910U 15049M   19301.76084654  .00001156  00000-0  60907-4 0  9996
2 40910  97.4661 303.5761 0016395  89.8808 356.7725 15.17492627227043
XW-2B
1 40911U 15049N   19301.70106729  .00000621  00000-0  35782-4 0  9998
2 40911  97.4719 301.9850 0015697  98.2486 350.3126 15.15923918226908
KAITUO 1B
1 40912U 15049P   19301.72222811  .00001486  00000-0  72335-4 0  9997
2 40912  97.4505 307.3864 0016415  73.0460  15.0816 15.19830453227366
TIANWANG 1C (TW-1C)
1 40926U 15051B   19301.74336598  .00022069  00000-0  29102-3 0  9998
2 40926  97.1211 347.8470 0006135 232.4974 266.7575 15.58401231230703
TIANWANG 1B (TW-1B)
1 40927U 15051C   19301.71510338  .00020530  00000-0  28927-3 0  9997
2 40927  97.1238 346.9149 0006150 246.3552 261.7116 15.56632629230531
